User: anonymous   Login
Location: Oshawa
(43.9000°N, 78.8670°W)
Time: 10:39:18
(UTC-04:00)
Language:

CZ-4C R/B - Orbit

View from above orbital plane
View from above orbital plane
View from above satellite
View from above satellite

Ground track
Ground track

The orbit data is extracted from the following two-line orbital elements,

1 32290U 07055B   17204.91424293 +.00001245 +00000-0 +36826-4 0  9992
2 32290 097.5334 312.1286 0066950 002.8371 357.3237 15.34838995537379
Epoch (UTC): 23 July 2017 21:56:30
Eccentricity: 0.0066950
inclination: 97.5334°
perigee height: 415 km
apogee height: 507 km
right ascension of ascending node: 312.1286°
argument of perigee: 2.8371°
revolutions per day: 15.34838995
mean anomaly at epoch: 357.3237°
orbit number at epoch: 53737

The dashed part of the orbit path shows where the satellite is in the earth's shadow,  

DLR